Location: Unspecified
(0.0000°N, 0.0000°E)
Time: 02:12:05
(UTC+00:00)

Vanguard 1 Rocket - Pass Details

Date: 28 March 2018
Orbit: 652 x 4225 km, 34.3° (Epoch: 18 July)

Event Time Altitude Azimuth Distance (km) Brightness Sun altitude
Rises 22:22:44 0° 301° (WNW) 5,411 11.7 -64.3°
Reaches altitude 10° 22:25:35 10° 300° (WNW) 4,765 11.3 -65.0°
Enters shadow 22:30:22 30° 296° (WNW) 3,886 10.6 -66.1°
Maximum altitude 22:40:45 76° 216° (SW) 3,433 - -68.7°
Drops below altitude 10° 23:06:36 10° 132° (SE) 7,434 - -75.1°
Exits shadow 23:10:06 - 131° (SE) 8,023 12.0 -75.9°
Sets 23:12:33 0° 130° (SE) 8,423 12.2 -76.5°
